[[{"header":{"parameterUnit":"m.s-1","parameterCategory":1,"la1":30.2991,"la2":30.254,"lo1":-89.0895,"lo2":-89.0444,"dy":0.0017,"dx":0.0017,"nx":28,"ny":28,"refTime":"2025-07-03T03:00:00:Z","depth":0,"parameterNumber":2,"parameterNumberName":"U-component_of_WINDS"},"data":[0,0,0,0,0,0,0,0,0,0,0,0,0,0,0,0,0,0,0,0,0,0,0,0,0,0,0,0,0,0,0,0,0,0,0,0,0,0,0,0,0,0,0,0,0,0,0,0,0,0,0,0,0,0,0,0,0,0,0.6234,0.6236,0,0.6463,0.6465,0.6468,0.6505,0.6503,0.6501,0.65,0.6739,0.6747,0.6755,0,0,0,0,0,0,0,0,0,0,0,0,0,0.5835,0.5842,0.6233,0.6236,0.6239,0.6462,0.6465,0.6469,0.6506,0.6503,0.6501,0.6499,0.6736,0.6746,0.6755,0,0,0,0,0,0,0,0,0,0,0,0,0,0.603,0.5844,0.6233,0.6285,0.6291,0.6462,0.6466,0.6469,0.6506,0.6503,0.65,0.6498,0.6733,0.6745,0.6757,0.6893,0,0,0.6794,0.68,0,0,0,0,0,0,0,0,0.6019,0.6045,0.6274,0.6281,0.6289,0.6452,0.6413,0.6612,0.6507,0.6425,0.65,0.6496,0.6646,0.6665,0.6715,0.6904,0.6914,0.6796,0.6803,0.6808,0.6812,0,0,0,0,0,0,0,0.6006,0.6035,0.6324,0.6277,0.6287,0.6299,0.6323,0.645,0.655,0.6432,0.6435,0.6461,0.665,0.6703,0.6721,0.6918,0.6795,0.6806,0.6814,0.6819,0.7235,0.7239,0,0,0,0,0,0,0.5982,0.6024,0.6317,0.6331,0.6144,0.6308,0.6335,0.6403,0.6548,0.6567,0.6464,0.6462,0.6683,0.6706,0.6729,0.6902,0.6808,0.682,0.6827,0.7232,0.7236,0.724,0,0,0,0,0,0,0.5973,0.6008,0.6308,0.6179,0.6218,0.6318,0.6394,0.6409,0.6463,0.6572,0.6591,0.65,0.6682,0.6712,0.6853,0.691,0.6825,0.6837,0.7227,0.7233,0.7238,0.7244,0,0,0,0,0,0,0.5962,0.6004,0.6055,0.6179,0.6224,0.6425,0.6397,0.6416,0.6483,0.6484,0.6611,0.6629,0.6682,0.6834,0.6865,0.6926,0.6846,0.7223,0.723,0.7236,0.7239,0.7249,0.7258,0,0,0,0,0,0.5947,0.6048,0.6058,0.6093,0.629,0.6428,0.6454,0.6511,0.6487,0.6541,0.6612,0.6625,0.6899,0.6848,0.6883,0.6948,0.7219,0.7228,0.7236,0.7235,0.7247,0.7258,0,0,0,0,0,0,0.5929,0.6065,0.6077,0.622,0.6312,0.6434,0.6503,0.6522,0.6623,0.662,0.6688,0.6717,0.6855,0.6916,0.6857,0.709,0.7057,0.7073,0.7045,0.7058,0.7067,0.705,0.6856,0,0,0,0,0,0.5941,0.604,0.6155,0.627,0.6316,0.6401,0.6464,0.65,0.6599,0.6638,0.672,0.6816,0.6925,0.6994,0.7099,0.7248,0.7279,0.7311,0.732,0.7327,0.734,0.7428,0.7444,0.7267,0.7267,0.7267,0,0,0.5968,0.6055,0.6113,0.6269,0.6344,0.6448,0.6434,0.6543,0.6622,0.6655,0.6794,0.6857,0.697,0.7116,0.7185,0.7171,0.7396,0.7338,0.7342,0.7352,0.7438,0.7454,0.7469,0.7273,0.7272,0.7271,0,0,0.607,0.6144,0.625,0.6327,0.6441,0.6498,0.6524,0.6644,0.6687,0.6827,0.6855,0.6951,0.7134,0.7215,0.728,0.7416,0.7434,0.7449,0.7497,0.7582,0.7596,0.7608,0.766,0.7678,0.7461,0.7462,0.7462,0,0.6089,0.6245,0.6303,0.6413,0.6482,0.6517,0.6627,0.6698,0.6842,0.689,0.6873,0.7107,0.7185,0.7352,0.7386,0.7436,0.747,0.7435,0.7588,0.7602,0.7615,0.7665,0.7684,0.7463,0.7463,0.7463,0.7462,0,0.6265,0.6373,0.6445,0.6583,0.666,0.6769,0.6846,0.6918,0.6949,0.7009,0.7153,0.7248,0.7375,0.7417,0.7448,0.7591,0.7579,0.7574,0.7543,0.7632,0.7681,0.77,0.7465,0.7464,0.7464,0.7464,0,0,0.636,0.653,0.6556,0.6621,0.6751,0.6837,0.695,0.7073,0.7135,0.7234,0.7332,0.7488,0.7486,0.7559,0.76,0.7674,0.778,0.7661,0.7665,0.7682,0.7947,0.7951,0.7972,0.7792,0.7796,0.7799,0.7939,0,0.6479,0.6679,0.6736,0.6906,0.7009,0.7045,0.7144,0.7236,0.7296,0.7393,0.746,0.7571,0.7557,0.7603,0.7677,0.7751,0.7835,0.7742,0.7887,0.7891,0.7859,0.7997,0.8001,0.8128,0.7958,0.7961,0.7963,0,0.6645,0.6747,0.6927,0.7048,0.7093,0.718,0.73,0.7392,0.7499,0.7538,0.7621,0.7656,0.7779,0.774,0.7911,0.7846,0.791,0.7955,0.7962,0.7979,0.7933,0.802,0.817,0.819,0.7993,0.7991,0.7989,0,0.6699,0.6882,0.7014,0.7068,0.7211,0.7273,0.7336,0.744,0.7512,0.7617,0.7665,0.7784,0.7849,0.7941,0.8009,0.7974,0.8176,0.8141,0.8213,0.8212,0.8255,0.8251,0.8419,0.8292,0.8292,0.8292,0.8291,0,0.6828,0.6937,0.7041,0.7122,0.7247,0.7314,0.7436,0.7501,0.7594,0.7691,0.773,0.782,0.7903,0.8005,0.8059,0.8195,0.8223,0.826,0.8273,0.8258,0.8253,0.8301,0.8294,0.8297,0.8296,0.8295,0.8294,0,0.6909,0.6983,0.713,0.7255,0.7289,0.7376,0.7484,0.7566,0.7628,0.7751,0.7783,0.7881,0.8004,0.8081,0.8236,0.8273,0.8423,0.8432,0.8386,0.8393,0.8461,0.8455,0.8667,0.8699,0.8549,0.855,0.8551,0,0.6987,0.7072,0.7206,0.7274,0.7337,0.7445,0.7519,0.7589,0.7665,0.7796,0.7863,0.7988,0.8092,0.8288,0.8375,0.8496,0.8509,0.8575,0.8528,0.851,0.8513,0.8508,0.8519,0.8583,0.8585,0.8586,0.8587,0,0.7117,0.7151,0.7255,0.7374,0.7461,0.7558,0.7654,0.7708,0.7795,0.7879,0.8005,0.8086,0.8246,0.8372,0.8501,0.8569,0.8594,0.8601,0.8625,0.861,0.8581,0.86,0.841,0.8596,0.8595,0.8594,0.8594,0.8593,0.7201,0.728,0.7388,0.7504,0.7584,0.7675,0.7759,0.7832,0.7938,0.8074,0.8109,0.8243,0.8352,0.8528,0.8598,0.8706,0.8696,0.8729,0.8738,0.8746,0.8749,0.8563,0.8729,0.8729,0.8729,0.8729,0.8729,0,0.7336,0.7408,0.7514,0.7648,0.7741,0.7755,0.7865,0.7942,0.8058,0.8157,0.8259,0.8407,0.8529,0.8626,0.8753,0.8821,0.8836,0.8852,0.8849,0.8865,0.8748,0.8716,0.8838,0.8838,0.8838,0.8838,0.8838,0.8838,0.7416,0.7551,0.7598,0.7775,0.7847,0.7977,0.8039,0.8124,0.8204,0.8366,0.8468,0.853,0.863,0.8765,0.888,0.8906,0.8952,0.8966,0.8994,0.8884,0.8872,0.8861,0.8831,0.8975,0.8975,0.9102,0.9104,0.9104]},{"header":{"parameterUnit":"m.s-1","parameterCategory":1,"la1":30.2991,"la2":30.254,"lo1":-89.0895,"lo2":-89.0444,"dy":0.0017,"dx":0.0017,"nx":28,"ny":28,"refTime":"2025-07-03T03:00:00:Z","depth":0,"parameterNumber":3,"parameterNumberName":"V-component_of_WINDS"},"data":[0,0,0,0,0,0,0,0,0,0,0,0,0,0,0,0,0,0,0,0,0,0,0,0,0,0,0,0,0,0,0,0,0,0,0,0,0,0,0,0,0,0,0,0,0,0,0,0,0,0,0,0,0,0,0,0,0,0,-0.8823,-0.8821,0,-0.8689,-0.8687,-0.8685,-0.8713,-0.8716,-0.8718,-0.872,-0.858,-0.8575,-0.8569,0,0,0,0,0,0,0,0,0,0,0,0,0,-0.9102,-0.9097,-0.8823,-0.8821,-0.882,-0.8689,-0.8687,-0.8685,-0.8713,-0.8716,-0.8719,-0.8722,-0.8582,-0.8575,-0.8568,0,0,0,0,0,0,0,0,0,0,0,0,0,-0.8976,-0.9095,-0.8823,-0.8818,-0.8816,-0.8689,-0.8687,-0.8685,-0.8712,-0.8716,-0.872,-0.8723,-0.8585,-0.8576,-0.8567,-0.8437,0,0,-0.8539,-0.8536,0,0,0,0,0,0,0,0,-0.8983,-0.8965,-0.882,-0.8818,-0.8816,-0.8722,-0.8734,-0.8601,-0.8711,-0.8751,-0.8721,-0.8725,-0.8624,-0.8612,-0.8579,-0.843,-0.8424,-0.8539,-0.8533,-0.8529,-0.8527,0,0,0,0,0,0,0,-0.8991,-0.8971,-0.877,-0.8818,-0.8815,-0.8821,-0.8808,-0.8709,-0.8668,-0.8748,-0.875,-0.8734,-0.8624,-0.8587,-0.8576,-0.8422,-0.8539,-0.8531,-0.8525,-0.8522,-0.8161,-0.8157,0,0,0,0,0,0,-0.9003,-0.8978,-0.8774,-0.8766,-0.891,-0.8813,-0.8798,-0.8748,-0.867,-0.8661,-0.8731,-0.8736,-0.8601,-0.8586,-0.8571,-0.8413,-0.8529,-0.8521,-0.8516,-0.8165,-0.816,-0.8156,0,0,0,0,0,0,-0.9008,-0.8984,-0.8779,-0.8872,-0.8847,-0.8805,-0.8748,-0.8743,-0.8707,-0.8657,-0.8649,-0.8701,-0.8603,-0.8584,-0.847,-0.8408,-0.8517,-0.8509,-0.817,-0.8164,-0.8158,-0.8096,0,0,0,0,0,0,-0.9016,-0.8986,-0.8936,-0.8871,-0.8842,-0.8681,-0.8744,-0.8738,-0.8692,-0.8697,-0.8627,-0.8619,-0.8605,-0.8484,-0.8461,-0.8398,-0.8501,-0.8175,-0.8167,-0.816,-0.8103,-0.8088,-0.8075,0,0,0,0,0,-0.9026,-0.8923,-0.8933,-0.8908,-0.8779,-0.8677,-0.866,-0.8647,-0.8687,-0.8636,-0.8604,-0.8621,-0.842,-0.8472,-0.8447,-0.838,-0.8179,-0.8169,-0.816,-0.8109,-0.8091,-0.8076,0,0,0,0,0,0,-0.898,-0.8914,-0.8925,-0.8798,-0.8743,-0.8682,-0.8617,-0.8628,-0.856,-0.8567,-0.8554,-0.8538,-0.8422,-0.839,-0.8449,-0.825,-0.8305,-0.829,-0.8274,-0.8257,-0.8243,-0.8252,-0.8494,0,0,0,0,0,-0.8956,-0.888,-0.8826,-0.8719,-0.8692,-0.8659,-0.8615,-0.861,-0.8552,-0.8528,-0.8488,-0.8431,-0.8355,-0.8304,-0.8232,-0.81,-0.8085,-0.8042,-0.8028,-0.8017,-0.8003,-0.7931,-0.7911,-0.8125,-0.8125,-0.8125,0,0,-0.8903,-0.8858,-0.881,-0.8709,-0.8666,-0.8587,-0.8639,-0.8553,-0.8494,-0.8515,-0.8405,-0.8374,-0.8309,-0.8186,-0.813,-0.8156,-0.7942,-0.8005,-0.7996,-0.7989,-0.792,-0.7899,-0.7881,-0.8119,-0.812,-0.8121,0,0,-0.8767,-0.8726,-0.8632,-0.8589,-0.8523,-0.8503,-0.8481,-0.8418,-0.8399,-0.8289,-0.8303,-0.8233,-0.8102,-0.8056,-0.8015,-0.7864,-0.7877,-0.7841,-0.7768,-0.7698,-0.7681,-0.7666,-0.7611,-0.7591,-0.7829,-0.7828,-0.7828,0,-0.8709,-0.8591,-0.8582,-0.8495,-0.845,-0.8467,-0.8372,-0.833,-0.8244,-0.8212,-0.8243,-0.808,-0.8038,-0.7904,-0.7868,-0.7835,-0.7808,-0.7847,-0.7684,-0.7669,-0.7655,-0.7602,-0.7582,-0.7824,-0.7825,-0.7825,-0.7826,0,-0.8523,-0.8442,-0.8374,-0.8292,-0.8239,-0.8148,-0.8125,-0.8074,-0.8074,-0.8051,-0.7939,-0.789,-0.7807,-0.7776,-0.7775,-0.7642,-0.766,-0.7688,-0.7742,-0.763,-0.7581,-0.7561,-0.7818,-0.782,-0.7821,-0.7822,0,0,-0.835,-0.8267,-0.8242,-0.8205,-0.8136,-0.8072,-0.7983,-0.7904,-0.7859,-0.78,-0.7724,-0.7615,-0.764,-0.7594,-0.7588,-0.7527,-0.741,-0.7563,-0.7561,-0.7535,-0.726,-0.7238,-0.7215,-0.742,-0.7417,-0.7413,-0.7265,0,-0.8206,-0.8049,-0.804,-0.7897,-0.7821,-0.7838,-0.776,-0.7709,-0.7686,-0.7618,-0.7593,-0.7514,-0.7555,-0.7527,-0.7468,-0.7437,-0.7355,-0.7448,-0.7348,-0.7345,-0.7361,-0.7189,-0.7165,-0.7027,-0.7246,-0.7243,-0.724,0,-0.8016,-0.7953,-0.7802,-0.7745,-0.7713,-0.7643,-0.7571,-0.7506,-0.7449,-0.7437,-0.7386,-0.739,-0.7298,-0.7359,-0.7232,-0.7296,-0.7255,-0.7234,-0.7229,-0.7216,-0.7284,-0.717,-0.6983,-0.6961,-0.721,-0.7212,-0.7214,0,-0.7902,-0.778,-0.7675,-0.7643,-0.7574,-0.7525,-0.7493,-0.7441,-0.7394,-0.7331,-0.73,-0.7227,-0.7186,-0.713,-0.7114,-0.7159,-0.6987,-0.7046,-0.6973,-0.6973,-0.6933,-0.6935,-0.6734,-0.6911,-0.6912,-0.6912,-0.6912,0,-0.7741,-0.7648,-0.7623,-0.7557,-0.7454,-0.7445,-0.7343,-0.7315,-0.7269,-0.7198,-0.721,-0.7143,-0.7127,-0.7058,-0.7045,-0.6942,-0.6924,-0.6911,-0.6908,-0.6908,-0.6909,-0.6879,-0.6887,-0.6906,-0.6908,-0.6909,-0.691,0,-0.7595,-0.7575,-0.746,-0.7406,-0.739,-0.7316,-0.7269,-0.7207,-0.7187,-0.7097,-0.7076,-0.7043,-0.6963,-0.6942,-0.6845,-0.6837,-0.6715,-0.6722,-0.6733,-0.6733,-0.666,-0.6667,-0.643,-0.6399,-0.6599,-0.6597,-0.6595,0,-0.7491,-0.742,-0.7359,-0.7313,-0.728,-0.7206,-0.716,-0.7149,-0.71,-0.7031,-0.6977,-0.6898,-0.6833,-0.6704,-0.6671,-0.6598,-0.6602,-0.6525,-0.6591,-0.6593,-0.6598,-0.6602,-0.6594,-0.6511,-0.6509,-0.6507,-0.6505,0,-0.7309,-0.7303,-0.7236,-0.7165,-0.7109,-0.7053,-0.6999,-0.696,-0.6943,-0.6887,-0.6805,-0.6755,-0.6658,-0.6579,-0.6505,-0.6473,-0.6485,-0.6486,-0.6465,-0.6462,-0.6471,-0.6464,-0.6697,-0.649,-0.6492,-0.6493,-0.6494,-0.6494,-0.7179,-0.7117,-0.7065,-0.699,-0.6949,-0.6899,-0.6837,-0.6811,-0.6742,-0.6662,-0.6661,-0.6572,-0.6519,-0.6421,-0.6386,-0.6316,-0.6339,-0.6309,-0.63,-0.6292,-0.6285,-0.6485,-0.6303,-0.6303,-0.6303,-0.6304,-0.6304,0,-0.6996,-0.6964,-0.6895,-0.682,-0.6761,-0.6781,-0.6723,-0.6672,-0.6594,-0.6544,-0.6481,-0.6388,-0.6312,-0.6275,-0.62,-0.6151,-0.6155,-0.6132,-0.6134,-0.6126,-0.6269,-0.6294,-0.613,-0.613,-0.613,-0.613,-0.613,-0.613,-0.6893,-0.6789,-0.6778,-0.6654,-0.6623,-0.6536,-0.6501,-0.6455,-0.6416,-0.6311,-0.6249,-0.6226,-0.6181,-0.6104,-0.6035,-0.6027,-0.5998,-0.5971,-0.5964,-0.6098,-0.6116,-0.6133,-0.6156,-0.5965,-0.5965,-0.5827,-0.5825,-0.5824]}]]